This demonstration page uses our WeatherBlox Daily Observations layout. Learn more.

Left ArrowRight Arrow

Hourly Observations for May 23, 2015

Temp ( °F °C ) Dew Point ( °F °C ) Humidity (%) Winds ( mph kmh ) Pressure ( in mb ) Visibility ( mi km ) Precip ( " mm )
12:58 am 00:58 Cloudy 57 14 50 9.9 77 77 SE 3 6 30.19 1022 10 16 0.00 0.00
1:58 am 01:58 Cloudy 57 14.1 51 10.3 78 78 ESE 3 6 30.19 1023 10 16 0.00 0.00
2:58 am 02:58 Cloudy 58 14.5 50 10.1 75 75 SSE 6 9 30.20 1023 10 16 0.00 0.00
3:58 am 03:58 Mostly Cloudy 56 13.5 51 10.3 81 81 SE 2 4 30.20 1023 10 16 0.00 0.00
4:58 am 04:58 Mostly Cloudy 55 13 50 10.1 83 83 SE 1 2 30.20 1023 10 16 0.00 0.00
5:12 am 05:12 Cloudy with Light Rain 55 13 50 10 82 82 SSE 2 4 30.18 1022 10 16 0.00 0.00
5:31 am 05:31 Partly Cloudy 55 13 52 11 88 88 ESE 2 4 30.18 1022 10 16 0.00 0.00
5:33 am 05:33 Partly Cloudy with Light Rain 55 13 52 11 88 88 ESE 2 4 30.18 1022 10 16 0.00 0.00
5:43 am 05:43 Mostly Clear 55 13 52 11 88 88 NE 2 4 30.18 1022 10 16 0.00 0.00
5:58 am 05:58 Mostly Cloudy 56 13.4 51 10.7 84 84 ENE 2 4 30.20 1023 10 16 0.00 0.03
6:33 am 06:33 Mostly Cloudy with Light Rain 57 14 52 11 82 82 SE 5 7 30.21 1023 9 14 0.00 0.00
6:47 am 06:47 Mostly Cloudy 57 14 52 11 82 82 SSE 3 6 30.21 1023 10 16 0.00 0.00
6:58 am 06:58 Mostly Cloudy 57 13.7 52 11.2 85 85 SSE 2 4 30.20 1023 10 16 0.00 0.03
7:20 am 07:20 Cloudy with Light Rain 57 14 54 12 88 88 SSE 2 4 30.21 1023 10 16 0.00 0.00
7:32 am 07:32 Mostly Cloudy 57 14 52 11 82 82 SSE 2 4 30.21 1023 10 16 0.00 0.00
7:45 am 07:45 Mostly Cloudy with Light Rain 57 14 54 12 88 88 SSE 3 6 30.21 1023 10 16 0.00 0.00
7:53 am 07:53 Mostly Cloudy with Rain 57 14 54 12 88 88 SE 6 9 30.21 1023 7 11 0.00 0.00
7:58 am 07:58 Mostly Cloudy with Light Rain 57 14.1 53 11.8 86 86 SSE 5 7 30.22 1023 7 11 0.01 0.25
8:00 am 08:00 Mostly Cloudy 57 14 54 12 88 88 SSE 6 9 30.21 1023 10 16 0.00 0.00
8:03 am 08:03 Mostly Cloudy with Drizzle 57 14 54 12 88 88 SSE 6 9 30.21 1023 10 16 0.00 0.00
8:11 am 08:11 Mostly Cloudy 57 14 54 12 88 88 SE 7 11 30.18 1022 10 16 0.00 0.00
8:17 am 08:17 Mostly Cloudy 57 14 54 12 88 88 ESE 6 9 30.18 1022 10 16 0.00 0.00
8:58 am 08:58 Mostly Cloudy 59 15.2 54 12.3 83 83 SE 9 15 30.21 1023 10 16 0.00 0.03
9:30 am 09:30 Cloudy 59 15 54 12 82 82 SE 13 20 30.21 1023 10 16 0.00 0.00
9:58 am 09:58 Cloudy 59 15.2 55 12.7 85 85 SSE 12 19 30.21 1023 10 16 0.00 0.00
9:59 am 09:59 Cloudy 59 15 55 13 88 88 SSE 13 20 30.21 1023 10 16 0.00 0.00
10:15 am 10:15 Cloudy 59 15 55 13 88 88 SE 10 17 30.18 1022 8 13 0.00 0.00
10:19 am 10:19 Cloudy 59 15 55 13 88 88 SE 12 19 30.18 1022 7 11 0.00 0.00
10:21 am 10:21 Cloudy 59 15 55 13 88 88 SE 10 17 30.18 1022 7 11 0.00 0.00
10:24 am 10:24 Cloudy 59 15 55 13 88 88 SE 10 17 30.18 1022 8 13 0.00 0.00
10:33 am 10:33 Cloudy 59 15 55 13 88 88 SE 13 20 30.18 1022 10 16 0.00 0.00
10:34 am 10:34 Cloudy 59 15 55 13 88 88 SE 13 20 30.18 1022 10 16 0.00 0.00
10:38 am 10:38 Cloudy with Drizzle 59 15 55 13 88 88 SE 10 17 30.18 1022 8 13 0.00 0.00
10:41 am 10:41 Cloudy with Drizzle 59 15 55 13 88 88 SE 9 15 30.18 1022 6 10 0.00 0.00
10:56 am 10:56 Cloudy 59 15 57 14 94 94 SE 10 17 30.18 1022 7 11 0.00 0.00
10:58 am 10:58 Cloudy 59 15 57 14 94 94 SE 10 17 30.20 1023 7 11 0.00 0.03
11:16 am 11:16 Cloudy 57 14 57 14 100 100 SE 14 22 30.18 1022 10 16 0.00 0.00
11:22 am 11:22 Cloudy 57 14 55 13 94 94 SE 10 17 30.18 1022 10 16 0.00 0.00
11:24 am 11:24 Cloudy 57 14 55 13 94 94 SE 9 15 30.18 1022 10 16 0.00 0.00
11:29 am 11:29 Cloudy 59 15 55 13 88 88 SE 12 19 30.18 1022 10 16 0.00 0.00
11:32 am 11:32 Cloudy 59 15 55 13 88 88 SE 12 19 30.18 1022 10 16 0.00 0.00
11:50 am 11:50 Cloudy 59 15 57 14 94 94 SE 12 19 30.18 1022 10 16 0.00 0.00
11:58 am 11:58 Cloudy 59 15.1 56 13.5 90 90 SE 10 17 30.18 1022 10 16 0.00 0.00
12:21 pm 12:21 Cloudy 61 16 57 14 88 88 SE 9 15 30.15 1021 10 16 0.00 0.00
12:58 pm 12:58 Cloudy 61 16.1 56 13.2 83 83 SSE 9 15 30.17 1022 10 16 0.00 0.00
1:15 pm 13:15 Cloudy 61 16 55 13 83 83 SE 12 19 30.15 1021 10 16 0.00 0.00
1:58 pm 13:58 Cloudy 63 17.2 56 13.6 80 80 SSE 7 11 30.15 1021 10 16 0.00 0.00
2:58 pm 14:58 Cloudy 64 17.7 57 13.9 79 79 SE 8 13 30.14 1021 10 16 0.00 0.00
3:38 pm 15:38 Cloudy 64 18 57 14 78 78 ESE 7 11 30.09 1019 10 16 0.00 0.00
3:58 pm 15:58 Cloudy 65 18.3 58 14.4 78 78 SSE 8 13 30.12 1020 10 16 0.00 0.00
4:32 pm 16:32 Cloudy with Light Rain 64 18 57 14 78 78 SSE 3 6 30.06 1018 10 16 0.00 0.00
4:58 pm 16:58 Cloudy 64 18 59 15 83 83 SSE 3 6 30.11 1020 10 16 0.00 0.03
5:58 pm 17:58 Cloudy 65 18.3 59 15.1 82 82 E 2 4 30.09 1019 10 16 0.00 0.00
6:44 pm 18:44 Cloudy 64 18 59 15 83 83 SE 5 7 30.03 1017 10 16 0.00 0.00
6:51 pm 18:51 Mostly Cloudy 64 18 59 15 83 83 SE 6 9 30.03 1017 10 16 0.00 0.00
6:56 pm 18:56 Mostly Cloudy with Light Rain 64 18 59 15 83 83 SE 6 9 30.03 1017 10 16 0.00 0.00
6:58 pm 18:58 Mostly Cloudy with Light Rain 64 18 59 15 83 83 SE 6 9 30.06 1018 10 16 0.00 0.00
6:59 pm 18:59 Mostly Cloudy with Light Rain 64 18 59 15 83 83 SE 6 9 30.03 1017 10 16 0.00 0.00
7:18 pm 19:18 Sunny 63 17 61 16 94 94 ESE 5 7 30.00 1016 10 16 0.00 0.00
7:24 pm 19:24 Partly Cloudy with Light Rain 63 17 61 16 94 94 ESE 5 7 30.00 1016 8 13 0.00 0.00
7:55 pm 19:55 Mostly Sunny 63 17 61 16 94 94 ESE 7 11 30.00 1016 10 16 0.00 0.00
7:58 pm 19:58 Mostly Sunny 62 16.8 60 15.8 94 94 ESE 7 11 30.04 1017 10 16 0.04 1.02
8:58 pm 20:58 Clear 62 16.9 60 15.3 90 90 E 9 15 30.04 1017 10 16 0.00 0.00
9:58 pm 21:58 Mostly Cloudy 62 16.8 60 15.4 92 92 E 8 13 30.03 1017 10 16 0.00 0.00
10:58 pm 22:58 Mostly Cloudy 62 16.8 60 15.5 92 92 E 7 11 30.00 1016 10 16 0.00 0.00
11:49 pm 23:49 Mostly Cloudy 63 17 59 15 88 88 SE 9 15 30.00 1016 10 16 0.00 0.00
11:56 pm 23:56 Mostly Cloudy 63 17 59 15 88 88 ESE 8 13 30.00 1016 10 16 0.00 0.00
11:58 pm 23:58 Mostly Cloudy 63 17.2 59 15.2 88 88 ESE 8 13 30.03 1017 10 16 0.00 0.00

Powered by AerisWeather